User: anonymous   Login
Location: Narvik
(68.4360°N, 17.4370°E)
Time: 19:58:28
(UTC+02:00)
Language:

LO-87 - Orbit

View from above orbital plane
View from above orbital plane
View from above satellite
View from above satellite

Ground track
Ground track

The orbit data is extracted from the following two-line orbital elements,

1 41557U 16033B   19287.45011260  .00001212  00000-0  47849-4 0  9993
2 41557  97.4150  14.2601 0012357 237.9818 122.0221 15.27438160188060
Epoch (UTC): 14 October 2019 10:48:09
Eccentricity: 0.0012357
inclination: 97.4150°
perigee height: 475 km
apogee height: 492 km
right ascension of ascending node: 14.2601°
argument of perigee: 237.9818°
revolutions per day: 15.27438160
mean anomaly at epoch: 122.0221°
orbit number at epoch: 18806

The dashed part of the orbit path shows where the satellite is in the earth's shadow,  

DLR